Home   Weather   33°54'N, 118°02'W   Past weeks
Flag for USA

Past Weather in 33°54'N, 118°02'W, USA — Yesterday and Last 2 Weeks

Now
90 °F

Sunny.


Feels Like: 86 °F
Forecast: 90 / 64 °F
Wind: 3 mph from North

Location: Los Angeles / USC Campus Downtown

Current Time: Oct 21, 2019 at 2:00:48 pm

Latest Report: Oct 21, 2019 at 12:52 pm


Visibility: 10 mi

Pressure: 29.97 "Hg

Humidity: 14%

Dew Point: 35 °F

Location of 33°54'N, 118°02'WLocation

Past Weather in 33°54'N, 118°02'W — Graph

°F

33°54'N, 118°02'W Temperature Yesterday

Maximum temperature yesterday: 87 °F (at 1:52 pm)
Minimum temperature yesterday: 62 °F (at 6:52 am)
Average temperature yesterday: 72 °F

High & Low Weather Summary for the Past Weeks

 TemperatureHumidityPressure
High93 °F (Oct 16, 12:52 pm)84% (Oct 8, 11:52 pm)30.01 "Hg (Oct 8, 11:52 pm)
Low57 °F (Oct 11, 5:52 am)4% (Oct 11, 12:52 pm)29.75 "Hg (Oct 17, 2:52 pm)
Average70 °F55%29.87 "Hg
* Reported Oct 6 12:52 pm — Oct 21 12:52 pm, 33°54'N, 118°02'W. Weather by CustomWeather, © 2019

Note: Actual official high and low records may vary slightly from our data, if they occured in-between our weather recording intervals... More about our weather records

Advertising

33°54'N, 118°02'W Weather History for the Previous 24 Hours

Scroll right to see more
 ConditionsComfort  
Time TempWeatherWind HumidityBarometerVisibility
12:52 pm
Mon, Oct 21
90 °FSunny.3 mph14%29.97 "Hg10 mi
11:52 am89 °FSunny.No wind15%29.99 "Hg10 mi
10:52 am87 °FSunny.No wind17%29.99 "Hg10 mi
9:52 am82 °FSunny.No wind23%29.99 "Hg10 mi
8:52 am76 °FSunny.3 mph26%29.99 "Hg10 mi
7:52 am70 °FSunny.3 mph32%29.97 "Hg10 mi
6:52 am69 °FClear.No wind32%29.95 "Hg10 mi
5:52 am70 °FClear.No wind31%29.93 "Hg10 mi
4:52 am70 °FClear.No wind31%29.91 "Hg10 mi
3:52 am68 °FClear.3 mph35%29.91 "Hg10 mi
2:52 am70 °FClear.No wind32%29.92 "Hg10 mi
1:52 am71 °FClear.No wind31%29.92 "Hg10 mi
12:52 am69 °FClear.No wind41%29.91 "Hg10 mi
11:52 pm
Sun, Oct 20
71 °FClear.No wind39%29.91 "Hg10 mi
10:52 pm70 °FClear.No wind46%29.90 "Hg10 mi
9:52 pm74 °FClear.No wind41%29.88 "Hg10 mi
8:52 pm73 °FClear.No wind51%29.86 "Hg10 mi
7:52 pm74 °FClear.3 mph50%29.85 "Hg10 mi
6:52 pm77 °FClear.No wind44%29.83 "Hg10 mi
5:52 pm80 °FSunny.No wind39%29.82 "Hg10 mi
4:52 pm85 °FSunny.No wind29%29.82 "Hg10 mi
3:52 pm85 °FSunny.3 mph27%29.82 "Hg10 mi
2:52 pm87 °FSunny.No wind28%29.82 "Hg10 mi
Weather by CustomWeather, © 2019

See weather overview